User: anonymous   Login
Location: Unspecified
(0.0000°N, 0.0000°E)
Time: 09:34:19
(UTC+00:00)
Language:

ETS 8 - Orbit

View from above orbital plane
View from above orbital plane
View from above satellite
View from above satellite

Ground track
Ground track

The orbit data is extracted from the following two-line orbital elements,

1 29656U 06059A   16178.00264449 -.00000247  00000-0  00000+0 0  9993
2 29656   4.9167  61.3011 0006187  24.5014 335.3866  1.00271614 34910
Epoch (UTC): 26 June 2016 00:03:48
Eccentricity: 0.0006187
inclination: 4.9167°
perigee height: 35760 km
apogee height: 35812 km
right ascension of ascending node: 61.3011°
argument of perigee: 24.5014°
revolutions per day: 1.00271614
mean anomaly at epoch: 335.3866°
orbit number at epoch: 3491

The dashed part of the orbit path shows where the satellite is in the earth's shadow,  

DLR